STARLINK-30312 (57641 NORAD) Tracking and Keplerian Element Data

This shows tracking and keplerian element data for the satellite.

Feedback or suggestion? Click here.




ElementValue
Catalog57641
NameSTARLINK-30312
Epoch Orbit2384
Epoch Day13.13998577
Epoch Year2024
RAAN48.5797
Inclination43.003
Eccentricity8.33E-05
Argument of Perigee254.1658
Mean Anonmoly105.9092
Mean Motion15.02534272
Decay Rate2.04E-05
L11 57641U 23122K 24013.13998577 .00002040 00000+0 16602-3 0 9995
L22 57641 43.0030 48.5797 0000833 254.1658 105.9092 15.02534272 23844



Live tracking and technical data element details for STARLINK-30312 (NORAD 57641). STARLINK-30312 can be tracked NOW for your location showing map with azimuth and elevation plus other details from your city location.







IsCatalogInMostPopularTable: catalog: 57641, numindb: 37
Update: records affected: 1



GetName: 57641 STARLINK-30312

Hit Count: updated at: Thu, 29 Feb 2024 11:03:37 GMT